Regional Weather Roundup
Issued by NWS Charleston, SC

Current Version | Previous Version | Text Only | Print | Product List | Glossary Off
Versions: 1 2 3 4 5 6 7 8 9 10 11 12 13 14 15 16 17 18 19 20 21 22 23 24 25 26 27 28 29 30 31 32 33 34 35 36 37 38 39 40 41 42 43 44 45 46 47 48 49 50

000
ASUS42 KCHS 200510
RWRCHS
REGIONAL WEATHER ROUNDUP
NATIONAL WEATHER SERVICE CHARLESTON SC
100 AM EDT SUN APR 20 2014

NOTE: "FAIR" INDICATES FEW OR NO CLOUDS BELOW 12,000 FEET WITH NO
SIGNIFICANT WEATHER AND/OR OBSTRUCTIONS TO VISIBILITY.

NOT ALL STATIONS ARE QUALITY CONTROLLED BY THE NATIONAL
WEATHER SERVICE. USE DATA WITH CAUTION...ESPECIALLY
DEWPOINT OBSERVATIONS.

SCZ027-030-031-034>040-042>050-200600-
...SOUTH CAROLINA...

CITY           SKY/WX    TMP DP  RH WIND       PRES   REMARKS
N CHARLESTON   LGT RAIN  54  50  86 N7        30.06R
WATERFRONT PRK   N/A     54 N/A N/A N10         N/A
FORT JOHNSON   NOT AVBL
MOUNT PLEASANT CLOUDY   N/A N/A N/A N7        30.04R
JOHNS ISLAND   LGT RAIN  54  54 100 N8        30.05R
PINOPOLIS      NOT AVBL
MONCKS CORNER  CLOUDY    54  52  94 N13G21    30.05F
SUMMERVILLE    NOT AVBL
BEAUFORT MCAS  LGT RAIN  54  51  90 E15       30.03F
BEAUFORT ARPT  CLOUDY    54  54 100 N22G29    30.03F
HILTON HEAD IS NOT AVBL
GEORGETOWN     NOT AVBL
WALTERBORO     CLOUDY    52 N/A N/A N9        30.07F
ORANGEBURG     LGT RAIN  52  49  89 N16       30.10F FOG
BARNWELL       CLOUDY    54  52  94 N17       30.11R
AIKEN          CLOUDY    50  50 100 NE16G28   30.16S
MANNING        CLOUDY    52 N/A N/A N10G18    30.09S
KINGSTREE      NOT AVBL
COLUMBIA       CLOUDY    51  48  89 NE12G20   30.14F
SUMTER         LGT RAIN  50  46  87 NE16G26   30.12R
FLORENCE       LGT RAIN  50  46  86 NE15G26   30.12S FOG
MYRTLE BEACH   CLOUDY    54  50  87 N21       30.04S
N MYRTLE BEACH LGT RAIN  52  50  93 N14G22    30.04S

$$

GAZ063-065-086>088-099>101-113>116-118-119-134-136>141-150-200600-
...GEORGIA...

CITY           SKY/WX    TMP DP  RH WIND       PRES   REMARKS
SAVANNAH ARPT  CLOUDY    54  51  90 N12       30.04S
HUNTER AAF     CLOUDY    55  53  94 N8G17     30.01F
FORT STEWART   CLOUDY    55  55 100 N13G22    30.04R
STATESBORO     NOT AVBL
SYLVANIA       CLOUDY    55  52  88 NE8       30.10S
CLAXTON        HVY RAIN  54  54 100 NE10      30.08S
THOMSON        CLOUDY    52  49  91 NE12      30.20S
AUGUSTA-BUSH   CLOUDY    52  48  86 N13       30.13R
AUGUSTA-DANIEL CLOUDY    53  48  83 N12G20    30.14R
SWAINSBORO     DRIZZLE   52  52 100 NE6       30.12R
VIDALIA        CLOUDY    54  54 100 N8        30.10R
ALMA           CLOUDY    56  51  84 N8        30.07R
WAYCROSS       NOT AVBL
JESUP          LGT RAIN  54  54 100 NE7       30.06S
BRUNSWICK      CLOUDY    55  55 100 N3        30.06S
SAINT SIMONS   LGT RAIN  57  55  93 N10       30.04S

$$

SCZ027-028-034-036>038-045-046-048>050-GAZ119-141-200600-
...LAKE AND SUPPLEMENTAL COASTAL OBSERVATIONS...

STATION/POSITION TIME  TEMP    WIND        PRES    WAVE   SWELL
                       AIR SEA DIR/SP/G            HT/PER HT/PER/DIR
                 (UTC) (F)     (DEG/KT/KT) (MB)    (FT/S) (FT/S/D)
UPR LAKE MARION  NOT AVBL
WINYAH BAY       0400   53      10/ 10     1017.0S
LAKE MURRAY      0400   50      30/  9/ 16 1020.7S
ACE BASIN NERRS  0400   53      10/  3     1018.0S
FORT PULASKI     0500   56 59  360/ 18/ 24 1016.3F
SAPELO ISLAND    0400   57     330/ 11     1017.0R

$$

ANZ835-935-AMZ111-154-330-350-352-354-374-450-454-472-200600-
...C-MAN AND BUOY OBSERVATIONS...

STATION/POSITION TIME  TEMP    WIND        PRES    WAVE   SWELL
                       AIR SEA DIR/SP/G            HT/PER HT/PER/DIR
                 (UTC) (F)     (DEG/KT/KT) (MB)    (FT/S) (FT/S/D)
FOLLY BEACH CMAN 0400   55     360/ 14/ 17 1017.2F
BUOY 41004       NOT AVBL
BUOY 41008       0500   60 64   10/ 19/ 23 1015.9R   7/ 7   2/ 90/10
5E ST. MARYS GA  0400      64                N/A     6/ 7   2/ 90/11
FRYING PAN BUOY  0500   61 68   50/ 29/ 37 1013.8F  10/ 7   2/ 90/11
BUOY 41025       NOT AVBL
CAPE LOOKOUT NC  0400   56      10/ 21/ 25 1017.9F
BUOY 41002       NOT AVBL
BUOY 41010       0500   74 75  290/ 17/ 21 1012.3F   5/ 9   3/ 70/ 9
BUOY 41012       NOT AVBL
ST AUGUSTINE FL  0500   61     360/ 22/ 24 1015.5F
CAPERS NEARSHORE NOT AVBL
FRIPP NEARSHORE  0400   55      10/ 23/ 27   N/A


$$


USA.gov is the U.S. government's official web portal to all federal, state and local government web resources and services.